Portada
METAR-TAF:

METAR-TAF

Aeroports :

Pekanbaru, Indonèsia

latitud: 00-28N, longitud: 101-27E, altitud: 31 m

Observació

L'informe es va fer fa 53 minuts, a les 17:00 UTC
Vent 5 kt del Sud-Est
Temperatura 26°C
Humitat 84%
Pressió 1007 hPa
Visibilitat: 8000 m
Escasses núvols a una alçada de 1300 ft

METAR: WIBB 301700Z 13005KT 8000 FEW013 26/23 Q1007

Hora: 00:53 (17:53 UTC)


TAF: manca

Observacions i pronòstics meteorològics de més de 4000 aeroports (METAR i TAF).

Les estacions disponibles són els punts grocs i vermells al mapa.

Posi el ratolí al punt desitjat per veure el nom de l'estació.

Feu clic per veure les observacions i els pronòstics meteorològics.

Per canviar el mapa: feu clic els botons verds amb una creu de color negre per apropar; al botó verd amb un guió per allunyar la imatge; o en les fletxes verdes per a mapes adjacents.


METAR-TAF: